Location: hvezdarna zebrak
(49.8744°N, 13.8989°E)
Time: 18:13:03
(UTC+02:00)

Tiangong - Pass Details

Date: 17 March 2026
Orbit: 376 x 385 km, 41.5° (Epoch: 18 April)

Event Time Altitude Azimuth Distance (km) Brightness Sun altitude
Exits shadow 04:39:56 17° 187° (S) 1,076 -0.1 -15.8°
Maximum altitude 04:40:28 17° 174° (S) 1,052 -0.1 -15.7°
Drops below altitude 10° 04:42:38 10° 130° (SE) 1,404 1.1 -15.4°
Sets 04:45:10 0° 110° (ESE) 2,262 2.7 -15.0°
